Location: Goudex
(43.3760°N, 0.9543°E)
Time: 02:41:44
(UTC+00:00)

Cosmos 1238 Rocket - Pass Details

Date: 20 November 2019
Orbit: 374 x 1033 km, 82.9° (Epoch: 14 December)

Event Time Altitude Azimuth Distance (km) Brightness Sun altitude
Rises 05:16:37 0° 178° (S) 3,767 7.2 -17.8°
Reaches altitude 10° 05:19:15 10° 176° (S) 2,797 6.6 -17.3°
Maximum altitude 05:25:44 69° 95° (E) 1,019 4.3 -16.2°
Drops below altitude 10° 05:31:33 10° 13° (NNE) 2,518 6.2 -15.1°
Sets 05:33:50 0° 11° (N) 3,370 6.8 -14.7°
